Regional Weather Roundup
Issued by NWS

Home | Current Version | Previous Version | Graphics & Text | Print | Product List | Glossary On
Versions: 1 2 3 4 5 6 7 8 9 10 11 12 13 14 15 16 17 18 19 20 21 22 23 24 25 26 27 28 29 30 31 32 33 34 35 36 37 38 39 40 41 42 43 44 45 46 47 48 49 50
000
ASUS43 KLOT 191410
RWRIL

ILLINOIS REGIONAL WEATHER ROUNDUP
NATIONAL WEATHER SERVICE CHICAGO/ROMEOVILLE IL
900 AM CDT SAT APR 19 2014

NOTE: "FAIR" INDICATES FEW OR NO CLOUDS BELOW 12,000 FEET WITH NO
SIGNIFICANT WEATHER AND/OR OBSTRUCTIONS TO VISIBILITY.

* THESE STATIONS ARE NOT UNDER NWS QUALITY CONTROL. THEY ALSO MAY NOT
  REPORT WEATHER SUCH AS PRECIPITATION OR FOG.

ILZ001-002-007-009-015-016-024-191500-
NORTHWEST ILLINOIS

CITY           SKY/WX    TMP DP  RH WIND       PRES   REMARKS
MOLINE         PTSUNNY   47  29  49 E9        30.33R
STERLING*      MOSUNNY   50  34  53 SE14      30.33S
SAVANNA*       MOSUNNY   46  31  56 E7        30.34S
$$

ILZ003-004-008-010-011-017-018-191500-
NORTH CENTRAL ILLINOIS

CITY           SKY/WX    TMP DP  RH WIND       PRES   REMARKS
ROCKFORD       MOSUNNY   45  31  58 SE10      30.38S
FREEPORT*      SUNNY     45  35  67 E10       30.37S
ROCHELLE*      SUNNY     47  33  56 E12       30.35F
DE KALB*       SUNNY     45  32  61 E13       30.36S
PERU*          SUNNY     47  33  59 CALM      30.35S
$$

ILZ005-006-012>014-019>023-191500-
NORTHEAST ILLINOIS

CITY           SKY/WX    TMP DP  RH WIND       PRES   REMARKS
CHICAGO-OHARE  MOSUNNY   44  31  60 E10       30.38S
CHICAGO-MIDWAY MOSUNNY   45  35  68 E10       30.38S
AURORA         SUNNY     47  32  56 E13       30.36S
LANSING*       SUNNY     47  36  66 E7        30.38S
WAUKEGAN       SUNNY     38  31  76 E15       30.40R WCI  29
DUPAGE AIRPORT SUNNY     45  33  63 E8        30.37R
KANKAKEE*      SUNNY     47  38  68 E12       30.37S
WHEELING       SUNNY     43  32  65 E12       30.40S
MORRIS*        SUNNY     49  32  52 E8        30.35F
ROMEOVILLE*    SUNNY     47  35  63 E10       30.37S
NORTHERLY ISL    N/A     41  34  76 E8          N/A
$$

LMZ740>746-191500-
SOUTHERN LAKE MICHIGAN

STATION/POSITION SKY/WX   TEMP    WIND        PRES    VSBY  WAVE
                          AIR SEA DIR/SP/G                  HT/PER
                          (F)     (DEG/KT/KT) (MB)    (MI)  (FT/S)
WAUKEGAN HARBOR            36      70/ 12/ 14 1030.5S
HARRISON CRIB              38      80/ 14/ 16   N/A
BURNHAM HARBOR             41      60/  9/ 13   N/A
CALUMET HARBOR             40      50/  9/ 11 1029.5F
MICHIGAN CITY              45      90/  7/ 10   N/A
$$

ILZ025>027-034>036-040-047-049-050-058-095>099-191500-
WEST-CENTRAL ILLINOIS

CITY           SKY/WX    TMP DP  RH WIND       PRES   REMARKS
QUINCY         SUNNY     52  33  48 SE10      30.28R
GALESBURG*     MOSUNNY   48  26  43 E10       30.31S
MACOMB*        SUNNY     50  27  40 SE14      30.33S
JACKSONVILLE*  SUNNY     53  35  50 E13       30.31S
PITTSFIELD*    SUNNY     53  35  50 SE8       30.30S
$$

ILZ028>032-037-038-041>044-048-051>054-059>061-191500-
CENTRAL ILLINOIS

CITY           SKY/WX    TMP DP  RH WIND       PRES   REMARKS
PONTIAC        SUNNY     48  34  57 E12       30.35S
BLOOMINGTON    SUNNY     50  32  50 E10       30.34S
DECATUR        SUNNY     51  35  54 E9        30.33S
PEORIA         SUNNY     50  27  40 E8        30.33R
LACON*         SUNNY     46  32  58 E10       30.34F
LINCOLN*       SUNNY     54  30  40 SE10      30.32S
SPRINGFIELD    SUNNY     53  31  42 E10       30.32R
TAYLORVILLE    SUNNY     52  34  50 SE12      30.30F
$$

ILZ033-039-045-046-055>057-062-063-191500-
EAST-CENTRAL ILLINOIS

CITY           SKY/WX    TMP DP  RH WIND       PRES   REMARKS
CHAMPAIGN      SUNNY     51  35  54 E14       30.32S
RANTOUL*       SUNNY     50  34  53 E8        30.34S
MATTOON        SUNNY     54  36  50 E7        30.31R
PARIS*         SUNNY     52  39  62 E7        30.33S
$$

ILZ079-100>102-191500-
SOUTHWEST ILLINOIS

CITY           SKY/WX    TMP DP  RH WIND       PRES   REMARKS
ALTON          SUNNY     54  39  58 E7        30.30R
BELLEVILLE     SUNNY     55  44  66 E5        30.28S
CAHOKIA*       SUNNY     58  42  55 SE5       30.28F
SPARTA*        SUNNY     55  43  62 E5        30.29R
$$

ILZ064>066-069>071-074>076-080>082-084>086-088>090-092>094-191500-
SOUTH-CENTRAL ILLINOIS

CITY           SKY/WX    TMP DP  RH WIND       PRES   REMARKS
CARBONDALE     SUNNY     58  45  62 E6        30.27S
CAIRO*         MOSUNNY   64  46  53 NE7       30.25S
MARION         MOSUNNY   61  45  55 E9        30.28R
MT. VERNON     SUNNY     55  37  50 NE9       30.29S
CENTRALIA*       N/A     56  40  54 CALM      30.28S
SALEM*         SUNNY     56  43  61 E6        30.29S
METROPOLIS*    SUNNY     62  41  46 E3        30.24S
$$

ILZ067-068-072-073-078-083-087-091-191500-
SOUTHEAST ILLINOIS

CITY           SKY/WX    TMP DP  RH WIND       PRES   REMARKS
FAIRFIELD*     SUNNY     57  45  62 E8        30.29S
HARRISBURG*    MOSUNNY   58  44  59 E7        30.29R
ROBINSON*      SUNNY     56  43  61 NE5       30.32S
CARMI*         SUNNY     59  46  62 NE6       30.28S
$$

ABBREVIATIONS USED IN REMARKS
   TC - TEMPERATURE IN CELSIUS
  WCI - WIND CHILL INDEX
   HX - HEAT INDEX
  VSB - VISIBILITY
$$




USA.gov is the U.S. government's official web portal to all federal, state and local government web resources and services.